Seward, AK

5:35 AM AKDT on April 27, 2017 (GMT -0800)
Seward

Weather History for PAWD - November, 2011

Change the Weather History Date:

Saturday, November 26, 2011

  Actual Average Record
Temperature  
Mean Temperature 14 °F -  
Max Temperature 17 °F 34 °F 47 °F (1982)
Min Temperature 10 °F 26 °F 4 °F (1963)
Degree Days  
Heating Degree Days 52    
Moisture  
Dew Point 6 °F    
Average Humidity 69    
Maximum Humidity 76    
Minimum Humidity 65    
Precipitation  
Precipitation 0.00 in - - ()
Sea Level Pressure  
Sea Level Pressure 29.46 in    
Wind  
Wind Speed 23 mph (North)    
Max Wind Speed 30 mph    
Max Gust Speed 44 mph    
Visibility 9 miles    
Events Snow    
Averages and records for this station are not official NWS values.
T = Trace of Precipitation, MM = Missing Value Source: NWS Daily Summary

Daily Weather History Graph

Daily Weather History Graph

Search for Another Location

Airport or City:

Trip Planner

Search our weather history database for the weather conditions in past years. The results will help you decide how hot, cold, wet, or windy it might be!

Date:

Astronomy

Nov. 26, 2011 Rise Set
Actual Time 9:22 AM AKST 4:06 PM AKST
Civil Twilight 8:29 AM AKST 4:59 PM AKST
Nautical Twilight 7:35 AM AKST 5:53 PM AKST
Astronomical Twilight 6:45 AM AKST 6:43 PM AKST
Moon 11:22 AM AKST (11/26) 5:30 PM AKST (11/26)
Length of Visible Light 8h 29m
Length of Day
6h 43m
Waxing Crescent, 4% of the Moon is Illuminated
Nov 26
Waxing Crescent
Dec 2
First Quarter
Dec 10
Full
Dec 17
Last Quarter
Dec 24
New

Hourly Weather History & Observations

Time (AKST) Temp. Windchill Dew Point Humidity Pressure Visibility Wind Dir Wind Speed Gust Speed Precip Events Conditions
12:12 AM 15.8 °F -2.3 °F 8.6 °F 73% 29.45 in 1.2 mi North 23.0 mph 36.8 mph 0.00 in Snow Light Snow
12:20 AM 15.8 °F -2.3 °F 8.6 °F 73% 29.45 in 2.0 mi North 23.0 mph 35.7 mph 0.00 in Snow Light Snow
12:27 AM 17.6 °F -0.3 °F 8.6 °F 68% 29.45 in 3.0 mi North 24.2 mph 35.7 mph 0.00 in Snow Light Snow
12:53 AM 17.1 °F -2.0 °F 8.1 °F 68% 29.44 in 8.0 mi North 27.6 mph 40.3 mph 0.00 in Snow Light Snow
1:53 AM 17.1 °F -1.7 °F 7.0 °F 65% 29.44 in 9.0 mi North 26.5 mph 39.1 mph 0.00 in Snow Light Snow
3:53 AM 16.0 °F -4.1 °F 6.1 °F 65% 29.43 in 10.0 mi North 29.9 mph 43.7 mph N/A   Clear
4:53 AM 15.1 °F -3.7 °F 6.1 °F 68% 29.43 in 10.0 mi NNE 24.2 mph 40.3 mph N/A   Overcast
5:53 AM 16.0 °F -3.2 °F 6.1 °F 65% 29.44 in 10.0 mi North 26.5 mph 38.0 mph N/A   Scattered Clouds
6:53 AM 15.1 °F -4.0 °F 6.1 °F 68% 29.44 in 10.0 mi North 25.3 mph 40.3 mph 0.00 in   Overcast
7:53 AM 14.0 °F -5.5 °F 6.1 °F 71% 29.44 in 10.0 mi North 25.3 mph 38.0 mph 0.00 in   Mostly Cloudy
8:53 AM 14.0 °F -3.9 °F 6.1 °F 71% 29.45 in 10.0 mi North 20.7 mph 36.8 mph N/A   Partly Cloudy
9:53 AM 14.0 °F -3.4 °F 5.0 °F 67% 29.46 in 10.0 mi North 19.6 mph 33.4 mph N/A   Clear
10:53 AM 15.1 °F -2.5 °F 6.1 °F 68% 29.47 in 10.0 mi North 20.7 mph 32.2 mph N/A   Clear
11:53 AM 15.1 °F -3.7 °F 6.1 °F 68% 29.47 in 10.0 mi North 24.2 mph 36.8 mph N/A   Clear
12:53 PM 16.0 °F 0.1 °F 6.1 °F 65% 29.47 in 10.0 mi NNE 17.3 mph 29.9 mph N/A   Clear
1:53 PM 16.0 °F -1.3 °F 7.0 °F 68% 29.47 in 10.0 mi NNE 20.7 mph 34.5 mph N/A   Clear
2:53 PM 15.1 °F -1.1 °F 6.1 °F 68% 29.46 in 10.0 mi North 17.3 mph 36.8 mph N/A   Clear
3:53 PM 15.1 °F -2.0 °F 6.1 °F 68% 29.47 in 10.0 mi NNE 19.6 mph 36.8 mph N/A   Clear
4:53 PM 14.0 °F -3.4 °F 5.0 °F 67% 29.47 in 10.0 mi NNE 19.6 mph 32.2 mph N/A   Clear
5:53 PM 12.9 °F -6.5 °F 5.0 °F 71% 29.47 in 10.0 mi NNE 24.2 mph 32.2 mph N/A   Clear
6:53 PM 12.9 °F -3.9 °F 5.0 °F 71% 29.48 in 10.0 mi NNE 17.3 mph 27.6 mph N/A   Clear
7:53 PM 12.0 °F -6.5 °F 3.9 °F 70% 29.48 in 10.0 mi North 20.7 mph 33.4 mph N/A   Clear
8:53 PM 10.9 °F -4.7 °F 3.9 °F 73% 29.49 in 10.0 mi North 13.8 mph 27.6 mph N/A   Clear
9:53 PM 10.9 °F -5.9 °F 3.9 °F 73% 29.49 in 10.0 mi NNE 16.1 mph 27.6 mph N/A   Clear
10:53 PM 10.0 °F -7.1 °F 3.0 °F 73% 29.49 in 10.0 mi North 16.1 mph 24.2 mph N/A   Clear
11:53 PM 10.0 °F -7.1 °F 3.9 °F 76% 29.48 in 10.0 mi North 16.1 mph 27.6 mph N/A   Partly Cloudy